Time,TemperatureF,DewpointF,PressureIn,WindDirection,WindDirectionDegrees,WindSpeedMPH,WindSpeedGustMPH,Humidity,HourlyPrecipIn,Conditions,Clouds,dailyrainin,SoftwareType,DateUTC
2013-02-27 00:00:00,31.3,19.0,29.79,WSW,248,0.0,0.0,60,0.00,,,0.00,VWS V13.00,2013-02-27 05:00:00,
2013-02-27 00:05:00,31.3,18.6,29.79,SW,228,0.0,0.0,59,0.00,,,0.00,VWS V13.00,2013-02-27 05:05:00,
2013-02-27 00:10:00,31.3,17.8,29.79,SSW,207,0.0,0.0,57,0.00,,,0.00,VWS V13.00,2013-02-27 05:10:00,
2013-02-27 00:15:00,31.3,17.8,29.79,South,172,0.0,0.0,57,0.00,,,0.00,VWS V13.00,2013-02-27 05:15:00,
2013-02-27 00:20:00,31.3,17.4,29.79,SW,215,0.0,4.0,56,0.00,,,0.00,VWS V13.00,2013-02-27 05:20:00,
2013-02-27 00:25:00,31.3,17.4,29.79,South,180,0.0,4.0,56,0.00,,,0.00,VWS V13.00,2013-02-27 05:25:00,
2013-02-27 00:30:00,31.3,17.4,29.79,ESE,103,0.0,4.0,56,0.00,,,0.00,VWS V13.00,2013-02-27 05:30:00,
2013-02-27 00:35:00,31.3,17.4,29.79,SSE,148,0.0,5.8,56,0.00,,,0.00,VWS V13.00,2013-02-27 05:35:00,
2013-02-27 00:40:00,31.3,16.6,29.79,SW,215,0.0,4.0,54,0.00,,,0.00,VWS V13.00,2013-02-27 05:40:00,
2013-02-27 00:45:00,31.5,16.3,29.79,South,178,0.0,5.4,53,0.00,,,0.00,VWS V13.00,2013-02-27 05:45:00,
2013-02-27 00:50:00,31.5,15.9,29.79,SSE,148,0.0,9.6,52,0.00,,,0.00,VWS V13.00,2013-02-27 05:50:00,
2013-02-27 00:55:00,31.5,15.4,29.79,SW,216,0.0,10.1,51,0.00,,,0.00,VWS V13.00,2013-02-27 05:55:00,
2013-02-27 01:00:00,31.6,15.6,29.79,SSW,200,10.1,11.0,51,0.00,,,0.00,VWS V13.00,2013-02-27 06:00:00,
2013-02-27 01:05:00,31.6,15.6,29.79,West,266,0.0,11.0,51,0.00,,,0.00,VWS V13.00,2013-02-27 06:05:00,
2013-02-27 01:10:00,31.5,15.4,29.79,NNE,20,0.0,11.0,51,0.00,,,0.00,VWS V13.00,2013-02-27 06:10:00,
2013-02-27 01:15:00,31.5,15.4,29.79,SSE,150,0.0,11.0,51,0.00,,,0.00,VWS V13.00,2013-02-27 06:15:00,
2013-02-27 01:20:00,31.5,15.9,29.79,WNW,289,0.0,0.0,52,0.00,,,0.00,VWS V13.00,2013-02-27 06:20:00,
2013-02-27 01:25:00,31.3,15.7,29.79,North,351,0.0,0.0,52,0.00,,,0.00,VWS V13.00,2013-02-27 06:25:00,
2013-02-27 01:30:00,31.3,17.0,29.79,North,351,0.0,0.0,55,0.00,,,0.00,VWS V13.00,2013-02-27 06:30:00,
2013-02-27 01:35:00,31.1,16.4,29.79,SSE,167,0.0,0.0,54,0.00,,,0.00,VWS V13.00,2013-02-27 06:35:00,
2013-02-27 01:40:00,31.1,16.0,29.79,WSW,244,0.0,2.7,53,0.00,,,0.00,VWS V13.00,2013-02-27 06:40:00,
2013-02-27 01:46:00,31.1,16.0,29.79,SE,144,0.0,2.7,53,0.00,,,0.00,VWS V13.00,2013-02-27 06:46:00,
2013-02-27 01:50:00,31.1,16.4,29.79,SSW,202,0.0,8.3,54,0.00,,,0.00,VWS V13.00,2013-02-27 06:50:00,
2013-02-27 01:56:00,30.9,15.8,29.79,WSW,248,0.0,8.3,53,0.00,,,0.00,VWS V13.00,2013-02-27 06:56:00,
2013-02-27 02:01:00,30.9,16.2,29.79,SSW,213,3.1,5.8,54,0.00,,,0.00,VWS V13.00,2013-02-27 07:01:00,
2013-02-27 02:06:00,30.9,16.2,29.79,West,260,0.0,5.8,54,0.00,,,0.00,VWS V13.00,2013-02-27 07:06:00,
2013-02-27 02:11:00,30.9,16.2,29.79,South,187,0.0,5.8,54,0.00,,,0.00,VWS V13.00,2013-02-27 07:11:00,
2013-02-27 02:16:00,30.9,16.2,29.76,WSW,250,0.0,5.8,54,0.00,,,0.00,VWS V13.00,2013-02-27 07:16:00,
2013-02-27 02:21:00,30.9,15.8,29.76,West,262,0.0,3.1,53,0.00,,,0.00,VWS V13.00,2013-02-27 07:21:00,
2013-02-27 02:26:00,30.9,16.2,29.76,WSW,240,0.0,3.1,54,0.00,,,0.00,VWS V13.00,2013-02-27 07:26:00,
2013-02-27 02:31:00,30.9,15.8,29.76,SW,236,0.0,5.4,53,0.00,,,0.00,VWS V13.00,2013-02-27 07:31:00,
2013-02-27 02:36:00,30.9,15.8,29.76,WSW,245,0.0,6.7,53,0.00,,,0.00,VWS V13.00,2013-02-27 07:36:00,
2013-02-27 02:41:00,30.9,15.8,29.76,SW,219,0.0,3.1,53,0.00,,,0.00,VWS V13.00,2013-02-27 07:41:00,
2013-02-27 02:46:00,30.9,16.2,29.76,West,268,0.0,4.9,54,0.00,,,0.00,VWS V13.00,2013-02-27 07:46:00,
2013-02-27 02:51:00,30.9,16.2,29.76,SSE,147,0.0,4.9,54,0.00,,,0.00,VWS V13.00,2013-02-27 07:51:00,
2013-02-27 02:56:00,30.7,16.5,29.76,NNW,347,0.0,4.9,55,0.00,,,0.00,VWS V13.00,2013-02-27 07:56:00,
2013-02-27 03:01:00,30.7,16.1,29.76,NNE,17,0.0,0.0,54,0.00,,,0.00,VWS V13.00,2013-02-27 08:01:00,
2013-02-27 03:06:00,30.9,16.2,29.76,SE,133,0.0,6.9,54,0.00,,,0.00,VWS V13.00,2013-02-27 08:06:00,
2013-02-27 03:11:00,30.9,16.7,29.76,SSE,154,0.0,6.9,55,0.00,,,0.00,VWS V13.00,2013-02-27 08:11:00,
2013-02-27 03:16:00,30.7,16.5,29.76,WNW,293,0.0,6.9,55,0.00,,,0.00,VWS V13.00,2013-02-27 08:16:00,
2013-02-27 03:21:00,30.7,16.9,29.76,East,101,0.0,7.8,56,0.00,,,0.00,VWS V13.00,2013-02-27 08:21:00,
2013-02-27 03:26:00,30.7,16.9,29.76,SSE,165,4.5,7.8,56,0.00,,,0.00,VWS V13.00,2013-02-27 08:26:00,
2013-02-27 03:31:00,30.7,16.9,29.76,SSE,165,0.0,7.8,56,0.00,,,0.00,VWS V13.00,2013-02-27 08:31:00,
2013-02-27 03:36:00,30.7,17.7,29.76,East,99,0.0,7.8,58,0.00,,,0.00,VWS V13.00,2013-02-27 08:36:00,
2013-02-27 03:41:00,30.7,18.1,29.73,SE,141,0.0,9.2,59,0.00,,,0.00,VWS V13.00,2013-02-27 08:41:00,
2013-02-27 03:46:00,30.7,18.1,29.73,SSE,166,0.0,9.2,59,0.00,,,0.00,VWS V13.00,2013-02-27 08:46:00,
2013-02-27 03:51:00,30.7,18.5,29.73,SE,129,0.0,9.2,60,0.00,,,0.00,VWS V13.00,2013-02-27 08:51:00,
2013-02-27 03:56:00,30.6,18.3,29.73,South,170,0.0,9.2,60,0.00,,,0.00,VWS V13.00,2013-02-27 08:56:00,
2013-02-27 04:01:00,30.6,18.3,29.73,SSE,154,0.0,4.0,60,0.00,,,0.00,VWS V13.00,2013-02-27 09:01:00,
2013-02-27 04:06:00,30.6,18.7,29.73,South,177,0.0,5.4,61,0.00,,,0.00,VWS V13.00,2013-02-27 09:06:00,
2013-02-27 04:11:00,30.6,18.3,29.73,NW,322,0.0,5.4,60,0.00,,,0.00,VWS V13.00,2013-02-27 09:11:00,
2013-02-27 04:16:00,30.7,18.1,29.73,South,181,0.0,5.4,59,0.00,,,0.00,VWS V13.00,2013-02-27 09:16:00,
2013-02-27 04:21:00,30.7,18.1,29.73,SSE,151,0.0,0.0,59,0.00,,,0.00,VWS V13.00,2013-02-27 09:21:00,
2013-02-27 04:26:00,30.6,18.0,29.73,WNW,284,0.0,6.7,59,0.00,,,0.00,VWS V13.00,2013-02-27 09:26:00,
2013-02-27 04:31:00,30.6,18.0,29.73,SE,145,0.0,12.5,59,0.00,,,0.00,VWS V13.00,2013-02-27 09:31:00,
2013-02-27 04:36:00,30.4,18.9,29.73,ESE,113,0.0,12.5,62,0.00,,,0.00,VWS V13.00,2013-02-27 09:36:00,
2013-02-27 04:41:00,30.2,18.8,29.70,SW,231,0.0,2.7,62,0.00,,,0.00,VWS V13.00,2013-02-27 09:41:00,
2013-02-27 04:46:00,30.0,18.6,29.70,SSE,163,3.1,6.7,62,0.00,,,0.00,VWS V13.00,2013-02-27 09:46:00,
2013-02-27 04:51:00,30.0,18.6,29.70,WSW,246,8.3,10.1,62,0.00,,,0.00,VWS V13.00,2013-02-27 09:51:00,
2013-02-27 04:56:00,30.0,19.0,29.70,ENE,66,0.0,10.1,63,0.00,,,0.00,VWS V13.00,2013-02-27 09:56:00,
2013-02-27 05:01:00,29.8,18.8,29.70,SW,235,2.7,9.6,63,0.00,,,0.00,VWS V13.00,2013-02-27 10:01:00,
2013-02-27 05:06:00,29.8,19.2,29.70,East,98,0.0,9.6,64,0.00,,,0.00,VWS V13.00,2013-02-27 10:06:00,
2013-02-27 05:11:00,29.8,19.5,29.70,WSW,247,0.0,9.6,65,0.00,,,0.00,VWS V13.00,2013-02-27 10:11:00,
2013-02-27 05:17:00,29.8,19.5,29.70,ESE,123,0.0,9.6,65,0.00,,,0.00,VWS V13.00,2013-02-27 10:17:00,
2013-02-27 05:22:00,29.8,19.9,29.70,NE,52,0.0,0.0,66,0.00,,,0.00,VWS V13.00,2013-02-27 10:22:00,
2013-02-27 05:27:00,29.8,19.9,29.67,NW,313,0.0,0.0,66,0.00,,,0.00,VWS V13.00,2013-02-27 10:27:00,
2013-02-27 05:32:00,29.8,20.6,29.67,NE,51,0.0,0.0,68,0.00,,,0.00,VWS V13.00,2013-02-27 10:32:00,
2013-02-27 05:37:00,29.7,20.4,29.67,NNW,331,0.0,0.0,68,0.00,,,0.00,VWS V13.00,2013-02-27 10:37:00,
2013-02-27 05:42:00,29.7,20.4,29.67,NNW,331,0.0,0.0,68,0.00,,,0.00,VWS V13.00,2013-02-27 10:42:00,
2013-02-27 05:47:00,29.5,20.6,29.67,NNW,331,0.0,0.0,69,0.00,,,0.00,VWS V13.00,2013-02-27 10:47:00,
2013-02-27 05:52:00,29.5,21.2,29.67,NNW,331,0.0,0.0,71,0.00,,,0.00,VWS V13.00,2013-02-27 10:52:00,
2013-02-27 05:57:00,29.3,21.4,29.67,NNW,331,0.0,0.0,72,0.00,,,0.00,VWS V13.00,2013-02-27 10:57:00,
2013-02-27 06:02:00,29.1,21.9,29.67,NNW,331,0.0,0.0,74,0.00,,,0.00,VWS V13.00,2013-02-27 11:02:00,
2013-02-27 06:07:00,29.1,22.2,29.67,NNW,331,0.0,0.0,75,0.00,,,0.00,VWS V13.00,2013-02-27 11:07:00,
2013-02-27 06:12:00,29.1,22.5,29.67,East,83,0.0,0.0,76,0.00,,,0.00,VWS V13.00,2013-02-27 11:12:00,
2013-02-27 06:17:00,29.1,22.8,29.67,ENE,78,0.0,0.0,77,0.00,,,0.00,VWS V13.00,2013-02-27 11:17:00,
2013-02-27 06:22:00,29.1,22.8,29.67,NW,325,0.0,0.0,77,0.00,,,0.00,VWS V13.00,2013-02-27 11:22:00,
2013-02-27 06:27:00,29.1,22.8,29.67,NNW,336,0.0,0.0,77,0.00,,,0.00,VWS V13.00,2013-02-27 11:27:00,
2013-02-27 06:32:00,29.1,23.1,29.67,WSW,252,0.0,0.0,78,0.00,,,0.00,VWS V13.00,2013-02-27 11:32:00,
2013-02-27 06:37:00,29.1,23.1,29.67,WSW,252,0.0,0.0,78,0.00,,,0.00,VWS V13.00,2013-02-27 11:37:00,
2013-02-27 06:42:00,29.3,23.3,29.67,SE,128,0.0,0.0,78,0.00,,,0.00,VWS V13.00,2013-02-27 11:42:00,
2013-02-27 06:47:00,29.3,23.3,29.67,ESE,109,0.0,0.0,78,0.00,,,0.00,VWS V13.00,2013-02-27 11:47:00,
2013-02-27 06:52:00,29.3,23.0,29.67,SSE,164,0.0,3.1,77,0.00,,,0.00,VWS V13.00,2013-02-27 11:52:00,
2013-02-27 06:57:00,29.3,22.7,29.64,South,169,2.7,3.1,76,0.00,,,0.00,VWS V13.00,2013-02-27 11:57:00,
2013-02-27 07:02:00,29.3,22.7,29.64,South,174,0.0,4.5,76,0.00,,,0.00,VWS V13.00,2013-02-27 12:02:00,
2013-02-27 07:07:00,29.3,22.7,29.64,SW,220,2.7,4.5,76,0.00,,,0.00,VWS V13.00,2013-02-27 12:07:00,
2013-02-27 07:13:00,29.3,22.7,29.64,SSE,155,0.0,4.5,76,0.00,,,0.00,VWS V13.00,2013-02-27 12:13:00,
2013-02-27 07:18:00,29.5,22.9,29.64,SW,222,0.0,0.0,76,0.00,,,0.00,VWS V13.00,2013-02-27 12:18:00,
2013-02-27 07:23:00,29.7,23.0,29.64,NNW,344,0.0,0.0,76,0.00,,,0.00,VWS V13.00,2013-02-27 12:23:00,
2013-02-27 07:28:00,29.7,23.0,29.64,ENE,72,0.0,2.7,76,0.00,,,0.00,VWS V13.00,2013-02-27 12:28:00,
2013-02-27 07:33:00,29.8,23.2,29.64,South,179,0.0,2.7,76,0.00,,,0.00,VWS V13.00,2013-02-27 12:33:00,
2013-02-27 07:38:00,30.0,23.4,29.64,SSW,213,0.0,0.0,76,0.00,,,0.00,VWS V13.00,2013-02-27 12:38:00,
2013-02-27 07:43:00,30.2,23.6,29.64,SE,126,0.0,0.0,76,0.00,,,0.00,VWS V13.00,2013-02-27 12:43:00,
2013-02-27 07:48:00,30.2,23.9,29.64,South,183,0.0,3.1,77,0.00,,,0.00,VWS V13.00,2013-02-27 12:48:00,
2013-02-27 07:53:00,30.4,24.0,29.64,SSE,159,0.0,4.9,77,0.00,,,0.00,VWS V13.00,2013-02-27 12:53:00,
2013-02-27 07:58:00,30.4,24.0,29.61,SSE,149,0.0,0.0,77,0.00,,,0.00,VWS V13.00,2013-02-27 12:58:00,
2013-02-27 08:03:00,30.6,24.2,29.61,NE,45,0.0,7.4,77,0.00,,,0.00,VWS V13.00,2013-02-27 13:03:00,
2013-02-27 08:08:00,30.9,24.6,29.61,SSE,168,0.0,10.1,77,0.00,,,0.00,VWS V13.00,2013-02-27 13:08:00,
2013-02-27 08:13:00,31.3,24.9,29.61,SSW,209,0.0,10.1,77,0.00,,,0.00,VWS V13.00,2013-02-27 13:13:00,
2013-02-27 08:18:00,31.3,24.6,29.61,WSW,254,0.0,0.0,76,0.00,,,0.00,VWS V13.00,2013-02-27 13:18:00,
2013-02-27 08:23:00,31.3,24.3,29.61,SSE,168,0.0,5.4,75,0.00,,,0.00,VWS V13.00,2013-02-27 13:23:00,
2013-02-27 08:28:00,31.3,24.3,29.61,SE,126,0.0,5.4,75,0.00,,,0.00,VWS V13.00,2013-02-27 13:28:00,
2013-02-27 08:33:00,31.3,24.3,29.61,WSW,237,0.0,10.1,75,0.00,,,0.00,VWS V13.00,2013-02-27 13:33:00,
2013-02-27 08:38:00,31.5,24.8,29.61,South,179,0.0,0.0,76,0.00,,,0.00,VWS V13.00,2013-02-27 13:38:00,
2013-02-27 08:43:00,31.6,25.0,29.61,ESE,103,0.0,5.4,76,0.00,,,0.00,VWS V13.00,2013-02-27 13:43:00,
2013-02-27 08:48:00,31.8,24.8,29.61,North,351,0.0,8.3,75,0.00,,,0.00,VWS V13.00,2013-02-27 13:48:00,
2013-02-27 08:53:00,32.0,24.7,29.61,SE,146,0.0,8.3,74,0.00,,,0.00,VWS V13.00,2013-02-27 13:53:00,
2013-02-27 08:58:00,32.0,25.0,29.61,SSE,158,0.0,5.4,75,0.00,,,0.00,VWS V13.00,2013-02-27 13:58:00,
2013-02-27 09:03:00,32.2,25.2,29.61,NNW,327,0.0,5.4,75,0.00,,,0.00,VWS V13.00,2013-02-27 14:03:00,
2013-02-27 09:08:00,32.4,25.0,29.61,South,185,0.0,5.4,74,0.00,,,0.00,VWS V13.00,2013-02-27 14:08:00,
2013-02-27 09:13:00,32.5,25.2,29.61,NW,316,0.0,5.4,74,0.00,,,0.00,VWS V13.00,2013-02-27 14:13:00,
2013-02-27 09:18:00,32.7,25.4,29.61,ENE,73,0.0,2.7,74,0.00,,,0.00,VWS V13.00,2013-02-27 14:18:00,
2013-02-27 09:23:00,32.9,25.2,29.61,NW,309,0.0,3.1,73,0.00,,,0.00,VWS V13.00,2013-02-27 14:23:00,
2013-02-27 09:28:00,33.1,25.0,29.58,SE,137,0.0,6.7,72,0.00,,,0.00,VWS V13.00,2013-02-27 14:28:00,
2013-02-27 09:33:00,33.1,25.4,29.58,WSW,253,0.0,10.1,73,0.00,,,0.00,VWS V13.00,2013-02-27 14:33:00,
2013-02-27 09:39:00,32.9,25.5,29.58,SE,142,0.0,0.0,74,0.00,,,0.00,VWS V13.00,2013-02-27 14:39:00,
2013-02-27 09:44:00,32.7,26.0,29.58,NE,38,0.0,5.4,76,0.00,,,0.00,VWS V13.00,2013-02-27 14:44:00,
2013-02-27 09:49:00,32.7,26.3,29.58,SSE,156,5.4,5.4,77,0.00,,,0.00,VWS V13.00,2013-02-27 14:49:00,
2013-02-27 09:54:00,32.7,26.3,29.58,SSE,157,0.0,5.4,77,0.00,,,0.00,VWS V13.00,2013-02-27 14:54:00,
2013-02-27 09:59:00,32.7,26.6,29.58,ESE,119,0.0,2.7,78,0.00,,,0.00,VWS V13.00,2013-02-27 14:59:00,
2013-02-27 10:04:00,32.7,26.9,29.58,WSW,254,0.0,2.7,79,0.00,,,0.00,VWS V13.00,2013-02-27 15:04:00,
2013-02-27 10:09:00,32.7,26.9,29.58,SSE,166,0.0,4.9,79,0.00,,,0.00,VWS V13.00,2013-02-27 15:09:00,
2013-02-27 10:14:00,32.7,27.2,29.58,WSW,250,0.0,4.9,80,0.00,,,0.00,VWS V13.00,2013-02-27 15:14:00,
2013-02-27 10:19:00,32.7,27.2,29.58,SE,139,0.0,2.7,80,0.00,,,0.00,VWS V13.00,2013-02-27 15:19:00,
2013-02-27 10:24:00,32.7,27.5,29.58,SE,130,0.0,2.7,81,0.00,,,0.00,VWS V13.00,2013-02-27 15:24:00,
2013-02-27 10:29:00,32.7,27.5,29.58,NNW,331,0.0,3.1,81,0.00,,,0.00,VWS V13.00,2013-02-27 15:29:00,
2013-02-27 10:34:00,33.1,28.2,29.58,SE,133,0.0,4.9,82,0.00,,,0.00,VWS V13.00,2013-02-27 15:34:00,
2013-02-27 10:39:00,33.3,28.4,29.58,WNW,291,0.0,3.6,82,0.00,,,0.00,VWS V13.00,2013-02-27 15:39:00,
2013-02-27 10:44:00,33.4,28.2,29.55,ESE,106,0.0,3.6,81,0.00,,,0.00,VWS V13.00,2013-02-27 15:44:00,
2013-02-27 10:49:00,33.6,27.8,29.55,SE,144,0.0,6.9,79,0.00,,,0.00,VWS V13.00,2013-02-27 15:49:00,
2013-02-27 10:54:00,33.6,28.1,29.55,SE,137,0.0,6.9,80,0.00,,,0.00,VWS V13.00,2013-02-27 15:54:00,
2013-02-27 10:59:00,33.6,28.1,29.55,SSE,149,0.0,0.0,80,0.00,,,0.00,VWS V13.00,2013-02-27 15:59:00,
2013-02-27 11:04:00,33.8,28.3,29.55,SE,146,0.0,7.4,80,0.00,,,0.00,VWS V13.00,2013-02-27 16:04:00,
2013-02-27 11:09:00,33.8,28.0,29.55,NNW,328,0.0,7.4,79,0.00,,,0.00,VWS V13.00,2013-02-27 16:09:00,
2013-02-27 11:14:00,33.6,27.8,29.55,SSW,205,0.0,7.4,79,0.00,,,0.00,VWS V13.00,2013-02-27 16:14:00,
2013-02-27 11:19:00,33.4,27.9,29.55,East,91,0.0,3.1,80,0.00,,,0.00,VWS V13.00,2013-02-27 16:19:00,
2013-02-27 11:24:00,33.3,28.4,29.55,SSW,197,0.0,3.1,82,0.00,,,0.00,VWS V13.00,2013-02-27 16:24:00,
2013-02-27 11:29:00,33.3,28.7,29.55,SW,219,0.0,3.1,83,0.00,,,0.00,VWS V13.00,2013-02-27 16:29:00,
2013-02-27 11:34:00,33.4,28.8,29.55,NW,326,0.0,3.1,83,0.00,,,0.00,VWS V13.00,2013-02-27 16:34:00,
2013-02-27 11:39:00,33.4,28.8,29.55,SW,230,0.0,3.1,83,0.00,,,0.00,VWS V13.00,2013-02-27 16:39:00,
2013-02-27 11:44:00,33.4,29.1,29.55,East,80,0.0,4.0,84,0.00,,,0.00,VWS V13.00,2013-02-27 16:44:00,
2013-02-27 11:49:00,33.4,29.1,29.55,ESE,108,0.0,6.7,84,0.00,,,0.00,VWS V13.00,2013-02-27 16:49:00,
2013-02-27 11:54:00,33.6,29.3,29.55,South,179,0.0,6.7,84,0.00,,,0.00,VWS V13.00,2013-02-27 16:54:00,
2013-02-27 11:59:00,33.8,29.5,29.52,NW,314,0.0,6.3,84,0.00,,,0.00,VWS V13.00,2013-02-27 16:59:00,
2013-02-27 12:04:00,33.8,29.5,29.52,SE,134,0.0,6.3,84,0.00,,,0.00,VWS V13.00,2013-02-27 17:04:00,
2013-02-27 12:09:00,34.0,29.7,29.52,SE,136,0.0,6.3,84,0.00,,,0.00,VWS V13.00,2013-02-27 17:09:00,
2013-02-27 12:14:00,34.0,29.1,29.52,SE,125,0.0,6.3,82,0.00,,,0.00,VWS V13.00,2013-02-27 17:14:00,
2013-02-27 12:19:00,34.0,28.8,29.52,ESE,108,0.0,0.0,81,0.00,,,0.00,VWS V13.00,2013-02-27 17:19:00,
2013-02-27 12:24:00,33.8,28.3,29.52,SSE,147,0.0,7.4,80,0.00,,,0.00,VWS V13.00,2013-02-27 17:24:00,
2013-02-27 12:29:00,34.0,28.8,29.52,NNE,20,0.0,7.4,81,0.00,,,0.00,VWS V13.00,2013-02-27 17:29:00,
2013-02-27 12:34:00,33.8,28.6,29.52,South,181,0.0,7.4,81,0.00,,,0.00,VWS V13.00,2013-02-27 17:34:00,
2013-02-27 12:39:00,33.8,28.9,29.52,SE,142,0.0,0.0,82,0.00,,,0.00,VWS V13.00,2013-02-27 17:39:00,
2013-02-27 12:44:00,33.6,29.0,29.52,SSE,151,7.4,7.8,83,0.00,,,0.00,VWS V13.00,2013-02-27 17:44:00,
2013-02-27 12:49:00,33.6,29.0,29.52,ENE,75,0.0,7.8,83,0.00,,,0.00,VWS V13.00,2013-02-27 17:49:00,
2013-02-27 12:54:00,33.4,29.1,29.52,SE,132,0.0,7.8,84,0.00,,,0.00,VWS V13.00,2013-02-27 17:54:00,
2013-02-27 12:59:00,33.4,29.1,29.49,South,171,0.0,3.1,84,0.00,,,0.00,VWS V13.00,2013-02-27 17:59:00,
2013-02-27 13:05:00,33.3,29.0,29.49,WSW,242,0.0,5.4,84,0.00,,,0.00,VWS V13.00,2013-02-27 18:05:00,
2013-02-27 13:09:00,33.3,29.2,29.49,SSE,147,0.0,5.4,85,0.00,,,0.00,VWS V13.00,2013-02-27 18:09:00,
2013-02-27 13:14:00,33.3,29.2,29.49,East,97,0.0,5.4,85,0.00,,,0.00,VWS V13.00,2013-02-27 18:14:00,
2013-02-27 13:20:00,33.3,29.2,29.49,SSE,158,0.0,0.0,85,0.00,,,0.00,VWS V13.00,2013-02-27 18:20:00,
2013-02-27 13:25:00,33.3,29.2,29.49,SW,219,0.0,3.1,85,0.00,,,0.00,VWS V13.00,2013-02-27 18:25:00,
2013-02-27 13:30:00,33.3,29.2,29.49,ESE,120,0.0,4.9,85,0.00,,,0.00,VWS V13.00,2013-02-27 18:30:00,
2013-02-27 13:35:00,33.3,29.2,29.49,East,80,0.0,4.9,85,0.00,,,0.00,VWS V13.00,2013-02-27 18:35:00,
2013-02-27 13:40:00,33.3,29.0,29.49,WNW,284,0.0,4.5,84,0.00,,,0.00,VWS V13.00,2013-02-27 18:40:00,
2013-02-27 13:45:00,33.3,29.0,29.49,SW,214,0.0,4.5,84,0.00,,,0.00,VWS V13.00,2013-02-27 18:45:00,
2013-02-27 13:50:00,33.4,29.1,29.49,SSW,199,0.0,4.5,84,0.00,,,0.00,VWS V13.00,2013-02-27 18:50:00,
2013-02-27 13:55:00,33.6,29.3,29.49,SSE,168,0.0,7.8,84,0.00,,,0.00,VWS V13.00,2013-02-27 18:55:00,
2013-02-27 14:00:00,33.8,29.5,29.49,South,179,0.0,4.0,84,0.00,,,0.00,VWS V13.00,2013-02-27 19:00:00,
2013-02-27 14:05:00,33.8,28.9,29.49,ENE,57,0.0,5.4,82,0.00,,,0.00,VWS V13.00,2013-02-27 19:05:00,
2013-02-27 14:10:00,34.0,28.8,29.49,WSW,240,0.0,6.9,81,0.00,,,0.00,VWS V13.00,2013-02-27 19:10:00,
2013-02-27 14:15:00,34.0,28.5,29.49,NW,318,0.0,6.9,80,0.00,,,0.00,VWS V13.00,2013-02-27 19:15:00,
2013-02-27 14:20:00,34.0,28.5,29.49,SE,140,0.0,7.4,80,0.00,,,0.00,VWS V13.00,2013-02-27 19:20:00,
2013-02-27 14:25:00,34.0,28.5,29.49,SE,128,0.0,7.4,80,0.00,,,0.00,VWS V13.00,2013-02-27 19:25:00,
2013-02-27 14:30:00,34.0,28.5,29.47,NNE,20,0.0,7.4,80,0.00,,,0.00,VWS V13.00,2013-02-27 19:30:00,
2013-02-27 14:35:00,33.8,28.6,29.47,SE,131,0.0,7.4,81,0.00,,,0.00,VWS V13.00,2013-02-27 19:35:00,
2013-02-27 14:40:00,33.8,28.6,29.47,North,356,0.0,4.0,81,0.00,,,0.00,VWS V13.00,2013-02-27 19:40:00,
2013-02-27 14:45:00,33.8,28.9,29.47,ESE,113,0.0,4.5,82,0.00,,,0.00,VWS V13.00,2013-02-27 19:45:00,
2013-02-27 14:50:00,33.6,28.7,29.47,WNW,297,0.0,4.5,82,0.00,,,0.00,VWS V13.00,2013-02-27 19:50:00,
2013-02-27 14:55:00,33.6,29.0,29.47,SSE,148,0.0,4.5,83,0.00,,,0.00,VWS V13.00,2013-02-27 19:55:00,
2013-02-27 15:00:00,33.6,28.4,29.47,NE,47,5.4,9.2,81,0.00,,,0.00,VWS V13.00,2013-02-27 20:00:00,
2013-02-27 15:05:00,33.6,28.1,29.47,WSW,239,0.0,9.2,80,0.00,,,0.00,VWS V13.00,2013-02-27 20:05:00,
2013-02-27 15:10:00,33.6,28.1,29.47,West,276,0.0,9.2,80,0.00,,,0.00,VWS V13.00,2013-02-27 20:10:00,
2013-02-27 15:15:00,33.4,27.9,29.47,ENE,65,0.0,9.2,80,0.00,,,0.00,VWS V13.00,2013-02-27 20:15:00,
2013-02-27 15:20:00,33.4,27.9,29.47,SSW,205,3.1,4.9,80,0.00,,,0.00,VWS V13.00,2013-02-27 20:20:00,
2013-02-27 15:25:00,33.4,27.9,29.47,NNE,13,0.0,7.4,80,0.00,,,0.00,VWS V13.00,2013-02-27 20:25:00,
2013-02-27 15:30:00,33.3,27.8,29.47,ESE,121,0.0,11.2,80,0.00,,,0.00,VWS V13.00,2013-02-27 20:30:00,
2013-02-27 15:35:00,33.3,28.1,29.47,ESE,121,0.0,11.2,81,0.00,,,0.00,VWS V13.00,2013-02-27 20:35:00,
2013-02-27 15:40:00,33.3,28.1,29.47,SE,143,0.0,6.7,81,0.00,,,0.00,VWS V13.00,2013-02-27 20:40:00,
2013-02-27 15:45:00,33.1,27.9,29.47,SSE,164,0.0,11.0,81,0.00,,,0.00,VWS V13.00,2013-02-27 20:45:00,
2013-02-27 15:50:00,33.1,28.2,29.47,SE,145,0.0,11.0,82,0.00,,,0.00,VWS V13.00,2013-02-27 20:50:00,
2013-02-27 15:55:00,33.1,28.2,29.47,SSE,153,0.0,11.0,82,0.00,,,0.00,VWS V13.00,2013-02-27 20:55:00,
2013-02-27 16:00:00,32.9,28.3,29.44,NNW,346,0.0,4.5,83,0.00,,,0.00,VWS V13.00,2013-02-27 21:00:00,
2013-02-27 16:05:00,32.9,28.3,29.44,NW,326,0.0,6.7,83,0.00,,,0.00,VWS V13.00,2013-02-27 21:05:00,
2013-02-27 16:10:00,33.1,28.5,29.44,WNW,288,0.0,6.7,83,0.00,,,0.00,VWS V13.00,2013-02-27 21:10:00,
2013-02-27 16:15:00,33.1,28.5,29.44,SE,136,0.0,6.7,83,0.00,,,0.00,VWS V13.00,2013-02-27 21:15:00,
2013-02-27 16:20:00,33.1,28.2,29.44,West,259,0.0,0.0,82,0.00,,,0.00,VWS V13.00,2013-02-27 21:20:00,
2013-02-27 16:25:00,33.1,28.2,29.44,SSE,165,0.0,4.9,82,0.00,,,0.00,VWS V13.00,2013-02-27 21:25:00,
2013-02-27 16:31:00,33.1,28.2,29.44,North,351,0.0,4.9,82,0.00,,,0.00,VWS V13.00,2013-02-27 21:31:00,
2013-02-27 16:36:00,32.9,28.0,29.44,WSW,246,0.0,4.9,82,0.00,,,0.00,VWS V13.00,2013-02-27 21:36:00,
2013-02-27 16:41:00,32.9,28.3,29.44,ESE,121,0.0,0.0,83,0.00,,,0.00,VWS V13.00,2013-02-27 21:41:00,
2013-02-27 16:46:00,32.7,28.4,29.44,NW,318,0.0,0.0,84,0.00,,,0.00,VWS V13.00,2013-02-27 21:46:00,
2013-02-27 16:51:00,32.5,28.2,29.44,NNW,341,0.0,0.0,84,0.00,,,0.00,VWS V13.00,2013-02-27 21:51:00,
2013-02-27 16:56:00,32.5,28.5,29.44,North,3,0.0,0.0,85,0.00,,,0.00,VWS V13.00,2013-02-27 21:56:00,
2013-02-27 17:01:00,32.5,28.8,29.44,South,182,0.0,0.0,86,0.00,,,0.00,VWS V13.00,2013-02-27 22:01:00,
2013-02-27 17:06:00,32.4,28.6,29.44,SW,217,0.0,0.0,86,0.00,,,0.00,VWS V13.00,2013-02-27 22:06:00,
2013-02-27 17:11:00,32.2,28.5,29.44,East,100,0.0,0.0,86,0.00,,,0.00,VWS V13.00,2013-02-27 22:11:00,
2013-02-27 17:16:00,32.2,28.5,29.44,East,100,0.0,0.0,86,0.00,,,0.00,VWS V13.00,2013-02-27 22:16:00,
2013-02-27 17:21:00,32.2,28.5,29.44,East,87,0.0,0.0,86,0.00,,,0.00,VWS V13.00,2013-02-27 22:21:00,
2013-02-27 17:26:00,32.2,28.5,29.44,NW,310,0.0,0.0,86,0.00,,,0.00,VWS V13.00,2013-02-27 22:26:00,
2013-02-27 17:31:00,32.2,28.8,29.44,SSW,193,0.0,0.0,87,0.00,,,0.00,VWS V13.00,2013-02-27 22:31:00,
2013-02-27 17:36:00,32.2,28.8,29.44,SSE,151,0.0,0.0,87,0.00,,,0.00,VWS V13.00,2013-02-27 22:36:00,
2013-02-27 17:41:00,32.2,28.8,29.44,SSE,150,0.0,0.0,87,0.00,,,0.00,VWS V13.00,2013-02-27 22:41:00,
2013-02-27 17:46:00,32.0,28.9,29.44,SE,143,0.0,0.0,88,0.00,,,0.00,VWS V13.00,2013-02-27 22:46:00,
2013-02-27 17:51:00,32.0,28.9,29.44,South,173,0.0,0.0,88,0.00,,,0.00,VWS V13.00,2013-02-27 22:51:00,
2013-02-27 17:56:00,32.2,28.8,29.44,South,183,0.0,0.0,87,0.00,,,0.00,VWS V13.00,2013-02-27 22:56:00,